#timestamp,LO_Frequency,Hit,StdDev 
1502431215.8,286047001.0,N,1.4
1502431235.7,286047000.0,N,1.4
1502431255.5,286046998.2,N,1.4
1502431275.3,286046998.6,N,1.4
1502431295.2,286047000.9,N,1.4
1502431315.0,286046998.2,N,1.1
1502431315.9,286046998.2,N,1.1
1502431335.8,286046998.5,N,1.1
1502431355.6,286046998.5,N,1.0
1502431375.4,286046998.1,N,1.0
1502431395.3,286047000.7,N,1.0
1502431415.1,286046998.5,N,1.0
1502431435.9,286047002.2,N,1.1
1502431455.7,286047001.1,N,1.2
1502431475.5,286046999.3,N,1.2
1502431495.4,286046996.5,Y,0.0
1502431515.2,286046999.3,P,0.0
1502431535.1,286046999.0,P,0.2
1502431536.0,286046999.0,P,0.2
1502431555.8,286047001.1,Y,0.0
1502431575.6,286046998.1,P,0.5
1502431595.5,286047000.5,N,1.0
1502431615.3,286047000.4,N,1.0
1502431635.2,286047000.5,N,1.0
1502431655.0,286047000.9,N,1.0
1502431655.9,286047000.9,N,1.0
1502431675.8,286047000.0,N,0.9
1502431695.6,286047002.3,N,1.1
1502431715.4,286046999.8,N,1.1
1502431735.3,286047000.0,N,1.0
1502431755.1,286046999.9,N,1.0
1502431775.8,286046999.7,N,0.9
1502431795.7,286047001.5,N,1.0
1502431815.5,286047002.2,N,1.1
1502431835.4,286047002.8,N,1.2
1502431855.2,286047001.9,N,1.2
1502431875.0,286047002.2,N,1.2
1502431875.9,286047002.2,N,1.2
1502431895.8,286047002.3,N,1.2
1502431915.6,286047002.4,N,1.3
1502431935.5,286047000.2,N,1.2
1502431955.3,286047000.2,N,1.2
1502431975.1,286046999.9,N,1.2
1502431995.9,286047002.1,N,1.2
1502432015.7,286047001.4,N,1.2
1502432035.5,286047003.5,N,1.3
1502432055.4,286047004.0,Y,0.0
1502432075.2,286046999.9,P,0.5
1502432095.1,286047000.9,N,0.5
1502432096.0,286047000.9,N,0.4
1502432115.8,286046998.5,Y,0.0
1502432135.7,286046999.3,P,0.7
1502432155.5,286046999.3,N,0.6
1502432175.3,286046996.6,P,1.5
1502432195.2,286046998.7,N,1.3
1502432215.0,286046999.3,N,1.2
1502432215.9,286046999.3,N,1.1
1502432265.8,286046999.4,E,nan
1502432275.7,286046999.4,N,0.0
1502432295.5,286046996.9,P,1.3
1502432315.4,286046997.2,N,1.1
1502432335.2,286046995.4,Y,0.0
1502432355.1,286046998.6,P,0.4
1502432356.0,286046998.6,P,0.4
1502432375.8,286046999.0,N,0.4
1502432395.6,286046998.7,Y,0.0
1502432415.5,286046999.8,P,0.6
1502432435.3,286047000.2,N,0.7
1502432455.2,286047000.0,N,0.7
1502432475.0,286047002.4,Y,0.0
1502432475.9,286047002.4,P,1.4
1502432495.8,286047000.1,N,1.2
1502432515.6,286047000.4,N,1.1
1502432535.4,286047000.9,N,1.0
1502432555.3,286047000.4,N,0.9
1502432575.1,286047000.3,N,0.8
1502432595.9,286047000.7,N,0.8
1502432615.7,286046998.5,N,1.0
1502432635.5,286046998.4,N,1.1
1502432655.4,286046999.4,N,1.1
1502432675.2,286046999.3,N,1.1
1502432695.0,286046998.3,N,1.1
1502432695.9,286046998.3,N,1.1
1502432715.8,286046998.9,N,1.1
1502432735.6,286046998.2,N,1.2
1502432755.5,286046998.3,N,1.2
1502432775.3,286046998.6,N,1.2
1502432795.1,286046998.1,N,1.2
1502432815.9,286046998.2,N,1.2
1502432835.7,286046999.4,N,1.1
1502432855.6,286046998.9,N,1.1
1502432875.4,286046998.2,N,1.1
1502432895.2,286046998.9,N,1.1
1502432915.1,286046999.0,N,1.1
1502432946.0,286046999.5,E,nan
1502432955.0,286046998.6,N,0.0
1502432955.9,286046998.6,P,0.0
1502432975.8,286046998.3,P,0.1
1502432995.6,286047000.8,Y,0.0
1502433015.5,286046999.7,P,0.6
1502433035.3,286047002.0,P,1.5
1502433055.1,286046999.8,N,1.3
1502433075.9,286047002.7,N,1.6
1502433095.7,286047004.0,N,1.9
1502433115.6,286047003.3,N,1.9
1502433135.4,286047001.5,N,1.8
1502433155.2,286047002.4,N,1.7
1502433175.1,286047000.3,N,1.7
1502433176.0,286047000.3,N,1.6
1502433195.8,286047002.0,N,1.6
1502433215.7,286047002.4,N,1.5
1502433235.5,286046999.9,N,1.5
1502433255.3,286047000.1,N,1.5
1502433275.2,286047002.5,N,1.5
1502433295.0,286047001.8,N,1.5
1502433295.9,286047001.8,N,1.4
1502433315.8,286047003.5,N,1.5
1502433335.6,286047001.7,N,1.4
1502433355.4,286047004.1,N,1.5
1502433375.3,286047004.3,N,1.6
1502433395.1,286047001.3,N,1.5
1502433415.8,286047004.4,N,1.6
1502433435.7,286047003.7,N,1.6
1502433455.5,286047003.2,N,1.6
1502433475.4,286047003.5,N,1.6
1502433495.2,286047003.6,N,1.6
1502433515.0,286047003.1,N,1.6
1502433515.9,286047003.1,N,1.6
1502433535.8,286047003.8,N,1.4
1502433555.6,286047004.4,Y,0.0
1502433575.5,286047000.4,P,1.0
1502433595.3,286046999.9,N,1.0
1502433615.1,286046998.5,N,1.4
1502433635.9,286047001.2,N,1.3
1502433655.7,286046998.5,N,1.4
1502433675.6,286046998.6,N,1.4
1502433695.4,286046998.2,N,1.4
1502433715.2,286046998.5,N,1.4
1502433735.1,286046998.5,N,1.4
1502433736.0,286046998.5,N,1.3
1502433755.8,286046999.1,N,1.3
1502433775.7,286046998.1,N,1.3
1502433795.5,286047000.8,N,1.3
1502433815.3,286046998.5,N,1.3
1502433835.2,286047001.1,N,1.3
1502433855.0,286046999.2,N,1.3
1502433855.9,286046999.2,N,1.2
1502433875.8,286046998.5,N,1.2
1502433895.6,286047000.9,N,1.2
1502433915.4,286046998.1,N,1.2
1502433935.3,286047000.8,N,1.2
1502433955.1,286047000.2,N,1.2
1502433975.8,286047001.0,N,1.2
1502433995.7,286046998.7,N,1.2
1502434015.5,286047000.5,N,1.2
1502434035.4,286047001.2,N,1.2
1502434055.2,286047001.1,N,1.2
1502434075.0,286047000.7,N,1.2
1502434075.9,286047000.7,N,1.2
1502434095.8,286047000.5,N,1.1
1502434115.6,286047001.9,N,1.2
1502434135.5,286046999.8,N,1.2
1502434155.3,286047001.0,N,1.2
1502434175.1,286047002.3,N,1.3
1502434195.9,286047001.3,N,1.3
1502434215.7,286047002.7,N,1.3
1502434235.6,286047002.3,N,1.3
1502434255.4,286047002.2,N,1.3
1502434275.2,286047002.5,N,1.4
1502434295.1,286047001.5,N,1.3
1502434296.0,286047001.5,N,1.3
1502434315.8,286047003.9,N,1.3
1502434335.7,286047005.5,Y,0.0
1502434355.5,286047003.9,P,1.5
1502434375.3,286047001.8,N,1.3
1502434395.2,286047001.7,N,1.1
1502434415.0,286047004.0,Y,0.0
1502434415.9,286047004.0,P,1.0
1502434435.8,286047001.1,N,1.2
1502434455.6,286047000.9,N,1.2
1502434475.5,286047000.3,N,1.3
1502434495.3,286047000.4,N,1.3
1502434515.1,286047004.0,Y,0.0
1502434535.9,286047000.2,P,0.6
1502434555.7,286046999.8,N,0.7
1502434575.6,286047000.3,N,0.6
1502434595.4,286047002.8,Y,0.0
1502434615.2,286047001.1,P,0.3
1502434635.1,286046998.1,P,1.3
1502434636.0,286046998.1,N,1.4
1502434655.8,286046999.0,N,1.2
1502434675.6,286046998.2,N,1.2
1502434695.5,286046999.8,N,1.1
1502434715.3,286046998.5,N,1.1
1502434735.2,286046999.8,N,1.0
1502434755.0,286047002.0,N,1.3
1502434755.9,286047002.0,N,1.4
1502434775.7,286046999.9,N,1.4
1502434795.6,286047000.3,N,1.3
